Home > Time Zones > World Clock > Weather > Palau > Koror > Past weeks

Flag for Palau Weather past 2 weeks in Koror, Palau

Now
84 °F

Broken clouds.


Feels Like: 96 °F
Forecast: 81 / 87 °F
Wind: 7 mph from South

Location: Koror / Palau Island

Current Time: Jul 30, 2014 at 7:08:36 PM

Latest Report: Jul 30, 2014 at 5:50 PM


Visibility: 15 mi

Pressure: 29.85 "Hg

Humidity: 84%

Dew point: 79 °F

Location of KororLocation

Historic Weather in Koror — Graph

°F

Koror temperature yesterday

Maximum temperature yesterday: 88 °F (at 12:50 PM)
Minimum temperature yesterday: 82 °F (at 12:53 AM)
Average temperature yesterday: 84 °F

Past Weeks' High & Low Weather Summary

 TemperatureHumidityPressure
High88 °F (Jul 20, 12:51 PM)100% (Jul 16, 12:53 PM)29.90 "Hg (Jul 16, 12:53 PM)
Low77 °F (Jul 16, 3:50 PM)74% (Jul 27, 4:51 PM)29.65 "Hg (Jul 25, 6:54 AM)
Average82 °F91%29.79 "Hg
* Reported Jul 15 5:50 PM — Jul 30 5:50 PM, Koror, Weather by CustomWeather, © 2014

Note: Actual official high and low records may vary slightly from our data, if they occured in-between our weather recording intervals... More about our weather records

Advertising

Koror weather history for previous 24 hours

 ConditionsComfort  
Time TempWeatherWind HumidityBarometerVisibility
5:50 PM
Jul 30
84 °FBroken clouds.7 mph84%29.85 "Hg15 mi
4:51 PM86 °FScattered clouds.8 mph79%29.84 "Hg15 mi
3:50 PM88 °FBroken clouds.7 mph75%29.84 "Hg15 mi
2:51 PM88 °FBroken clouds.8 mph75%29.84 "Hg15 mi
1:52 PM86 °FBroken clouds.12 mph79%29.85 "Hg15 mi
12:52 PM88 °FBroken clouds.7 mph75%29.86 "Hg15 mi
11:55 AM88 °FBroken clouds.5 mph75%29.87 "Hg15 mi
10:53 AM86 °FBroken clouds.8 mph79%29.89 "Hg15 mi
9:50 AM86 °FBroken clouds.7 mph79%29.90 "Hg15 mi
8:53 AM86 °FBroken clouds.8 mph79%29.88 "Hg15 mi
7:50 AM84 °FBroken clouds.8 mph84%29.87 "Hg15 mi
6:50 AM82 °FBroken clouds.6 mph89%29.86 "Hg15 mi
5:50 AM81 °FOvercast.6 mph94%29.85 "Hg15 mi
4:50 AM82 °FMostly cloudy.7 mph89%29.85 "Hg14 mi
3:51 AM82 °FPassing clouds.9 mph89%29.84 "Hg14 mi
2:51 AM82 °FPassing clouds.6 mph89%29.83 "Hg14 mi
1:50 AM82 °FPassing clouds.8 mph89%29.84 "Hg14 mi
12:50 AM82 °FPartly cloudy.9 mph94%29.86 "Hg14 mi
11:53 PM
Jul 29
82 °FPartly cloudy.8 mph94%29.87 "Hg14 mi
10:52 PM82 °FPartly cloudy.6 mph89%29.88 "Hg14 mi
9:54 PM82 °FPartly cloudy.5 mph89%29.86 "Hg14 mi
8:54 PM82 °FPartly cloudy.6 mph89%29.83 "Hg14 mi
7:55 PM82 °FPartly cloudy.7 mph89%29.86 "Hg14 mi
Weather by CustomWeather, © 2014

See weather overviewHow to use our weather pages